Regional Weather Roundup
Issued by NWS

Home | Current Version | Previous Version | Text Only | Print | Product List | Glossary Off
Versions: 1 2 3 4 5 6 7 8 9 10 11 12 13 14 15 16 17 18 19 20 21 22 23 24 25 26 27 28 29 30 31 32 33 34 35 36 37 38 39 40 41 42 43 44 45 46 47 48 49 50

000
ASUS43 KLMK 182010
RWRKY
KENTUCKY REGIONAL WEATHER ROUNDUP
NATIONAL WEATHER SERVICE LOUISVILLE KY
400 PM EDT FRI AUG 18 2017

NOTE "FAIR" INDICATES FEW OR NO CLOUDS BELOW 12,000 FEET
WITH NO SIGNIFICANT WEATHER AND/OR OBSTRUCTIONS TO VISIBILITY.

KYZ001>023-026-027-061>063-070>075-182100-
WESTERN AND SOUTH CENTRAL KENTUCKY

CITY           SKY/WX    TMP DP  RH WIND       PRES   REMARKS
PADUCAH        SUNNY     88  62  41 NW7       29.95F
HENDERSON      SUNNY     84  68  58 NW8       29.96F
OWENSBORO      SUNNY     86  66  51 W9        29.95F
HOPKINSVILLE   SUNNY     85  63  47 NW8       29.97F
BOWLING GREEN  MOSUNNY   86  64  47 W10       29.97F
GLASGOW        MOSUNNY   85  63  46 W6        29.97F
$$

KYZ024-025-028>034-038-045-046-053-182100-
NORTH CENTRAL KENTUCKY

CITY           SKY/WX    TMP DP  RH WIND       PRES   REMARKS
LOUISVILLE/SDF MOSUNNY   88  63  43 W8        29.92F
LOUISVILLE/LOU MOSUNNY   85  64  49 NW10      29.93F
FORT KNOX      MOSUNNY   85  64  48 W7        29.93F
$$

KYZ035>037-039>044-047>052-055>060-089>105-182100-
NORTHEAST KENTUCKY

CITY           SKY/WX    TMP DP  RH WIND       PRES   REMARKS
LEXINGTON      MOSUNNY   84  63  49 W15G23    29.95S
COVINGTON      PTSUNNY   83  65  54 NW15      29.92S
FRANKFORT      PTSUNNY   83  61  47 SW8       29.93F
$$

KYZ054-064>069-076>088-106>120-182100-
SOUTHEAST KENTUCKY

CITY           SKY/WX    TMP DP  RH WIND       PRES   REMARKS
JACKSON        MOSUNNY   84  66  54 W8G18     29.95F
LONDON         PTSUNNY   83  64  52 W13       29.97S
SOMERSET       MOSUNNY   82  63  51 W13       29.98S
MIDDLESBORO    MOSUNNY   87  68  53 NW8       29.96F HX  90
MONTICELLO     MOCLDY    83  69  62 W14G20    30.00S
$$





USA.gov is the U.S. government's official web portal to all federal, state and local government web resources and services.